Weather History for Madrid, Spain

Change the Weather History Date:

Monday, August 5, 2013

  Actual Average Record
Temperature  
Mean Temperature 78 °F -  
Max Temperature 96 °F 86 °F 100 °F (2008)
Min Temperature 59 °F 60 °F 53 °F (2000)
Cooling Degree Days 12    
Growing Degree Days 28 (Base 50)    
Moisture  
Dew Point 38 °F    
Average Humidity 23    
Maximum Humidity 45    
Minimum Humidity 4    
Precipitation  
Precipitation 0.00 in 0.02 in - ()
Sea Level Pressure  
Sea Level Pressure 30.02 in    
Wind  
Wind Speed 5 mph ()    
Max Wind Speed 15 mph    
Max Gust Speed 28 mph    
Visibility 19.0 miles    
Events      
Averages and records for this station are not official NWS values.
T = Trace of Precipitation, MM = Missing Value Source: Averaged Metar Reports

Daily Weather History Graph

Daily Weather History Graph

Search for Another Location

Airport:

Trip Planner

Search our weather history database for the weather conditions in past years. The results will help you decide how hot, cold, wet, or windy it might be!

Date:

Astronomy

Aug. 05, 2013 Rise Set
Actual Time 7:15 AM CEST 9:24 PM CEST
Civil Twilight 6:45 AM CEST 9:54 PM CEST
Nautical Twilight 6:08 AM CEST 10:31 PM CEST
Astronomical Twilight 5:27 AM CEST 11:11 PM CEST
Moon 5:57 AM CEST (8/5) 8:16 PM CEST (8/5)
Length of Visible Light 15h 09m
Length of Day
14h 09m
Waning Crescent, 2% of the Moon is Illuminated
Aug 5
Waning Crescent
Aug 6
New
Aug 14
First Quarter
Aug 21
Full
Aug 28
Last Quarter

Hourly Weather History & Observations

Time (CEST) Temp. Dew Point Humidity Pressure Visibility Wind Dir Wind Speed Gust Speed Precip Events Conditions
12:00 AM 78.8 °F 35.6 °F 21% 30.06 in - Variable 2.3 mph - N/A   Clear
12:30 AM 75.2 °F 35.6 °F 24% 30.06 in - Variable 2.3 mph - N/A   Clear
1:00 AM 73.4 °F 35.6 °F 25% 30.06 in - Variable 2.3 mph - N/A   Clear
1:30 AM 73.4 °F 37.4 °F 27% 30.06 in - ESE 1.2 mph - N/A   Clear
2:00 AM 69 °F 36 °F 18% 30.00 in 19 mi North 2.3 mph - -  
2:00 AM 71.6 °F 37.4 °F 29% 30.06 in - North 3.5 mph - N/A   Clear
2:30 AM 69.8 °F 37.4 °F 31% 30.06 in - NNE 4.6 mph - N/A   Clear
3:00 AM 68.0 °F 35.6 °F 30% 30.04 in - North 3.5 mph - N/A   Clear
3:30 AM 68.0 °F 35.6 °F 30% 30.04 in - North 5.8 mph - N/A   Clear
4:00 AM 68.0 °F 35.6 °F 30% 30.04 in - North 4.6 mph - N/A   Clear
4:30 AM 66.2 °F 35.6 °F 32% 30.04 in - NNW 2.3 mph - N/A   Clear
5:00 AM 66.2 °F 35.6 °F 32% 30.04 in - North 3.5 mph - N/A   Clear
5:30 AM 64.4 °F 35.6 °F 34% 30.06 in - North 4.6 mph - N/A   Clear
6:00 AM 64.4 °F 35.6 °F 34% 30.04 in - NW 4.6 mph - N/A   Clear
6:30 AM 62.6 °F 37.4 °F 39% 30.04 in - NNE 4.6 mph - N/A   Clear
7:00 AM 60.8 °F 37.4 °F 42% 30.06 in - North 4.6 mph - N/A   Clear
7:30 AM 60.8 °F 39.2 °F 45% 30.06 in - North 6.9 mph - N/A   Clear
8:00 AM 62 °F 36 °F 26% 30.03 in 19 mi NNW 5.8 mph - -  
8:00 AM 62.6 °F 37.4 °F 39% 30.06 in - NNW 5.8 mph - N/A   Clear
8:30 AM 64.4 °F 37.4 °F 37% 30.06 in - North 4.6 mph - N/A   Clear
9:00 AM 68.0 °F 39.2 °F 35% 30.06 in - North 4.6 mph - N/A   Clear
9:30 AM 71.6 °F 41.0 °F 33% 30.06 in - Variable 2.3 mph - N/A   Clear
10:00 AM 75.2 °F 42.8 °F 31% 30.06 in - Variable 2.3 mph - N/A   Clear
10:30 AM 77.0 °F 48.2 °F 36% 30.06 in - SE 3.5 mph - N/A   Clear
11:00 AM 78.8 °F 46.4 °F 32% 30.06 in - SW 2.3 mph - N/A   Clear
11:30 AM 82.4 °F 46.4 °F 28% 30.06 in - East 1.2 mph - N/A   Clear
12:00 PM 84.2 °F 44.6 °F 25% 30.06 in - SW 2.3 mph - N/A   Clear
12:30 PM 87.8 °F 44.6 °F 22% 30.06 in - Variable 3.5 mph 15.0 mph N/A   Clear
1:00 PM 89.6 °F 42.8 °F 20% 30.04 in - SW 9.2 mph 21.9 mph N/A   Clear
1:30 PM 91.4 °F 41.0 °F 17% 30.04 in - South 8.1 mph 20.7 mph N/A   Clear
2:00 PM 93 °F 35 °F 6% 29.88 in 19 mi SSW 11.5 mph - -   Clear
2:00 PM 93.2 °F 39.2 °F 15% 30.04 in - SSW 9.2 mph 24.2 mph N/A   Clear
2:30 PM 93.2 °F 37.4 °F 14% 30.04 in - SSW 12.7 mph - N/A   Clear
3:00 PM 93.2 °F 37.4 °F 14% 30.01 in - South 11.5 mph - N/A   Clear
3:30 PM 95.0 °F 35.6 °F 12% 30.01 in - SSW 12.7 mph - N/A   Clear
4:00 PM 95.0 °F 35.6 °F 12% 30.01 in - SSW 13.8 mph - N/A   Clear
4:30 PM 95.0 °F 37.4 °F 13% 30.01 in - South 11.5 mph - N/A   Clear
5:00 PM 95.0 °F 35.6 °F 12% 29.98 in - SSW 13.8 mph 26.5 mph N/A   Clear
5:30 PM 96.8 °F 35.6 °F 12% 29.98 in - SW 13.8 mph 27.6 mph N/A   Clear
6:00 PM 96.8 °F 33.8 °F 11% 29.98 in - SW 15.0 mph - N/A   Clear
6:30 PM 96.8 °F 35.6 °F 12% 29.98 in - SSW 15.0 mph - N/A   Clear
7:00 PM 95.0 °F 35.6 °F 12% 29.98 in - SSW 13.8 mph - N/A   Clear
7:30 PM 95.0 °F 32.0 °F 11% 29.98 in - SSW 13.8 mph - N/A   Clear
8:00 PM 94 °F 29 °F 4% 29.81 in 19 mi SW 13.8 mph - -  
8:00 PM 95.0 °F 33.8 °F 12% 29.95 in - SW 15.0 mph - N/A   Clear
8:30 PM 93.2 °F 33.8 °F 12% 29.98 in - WSW 12.7 mph - N/A   Clear
9:00 PM 91.4 °F 33.8 °F 13% 29.98 in - WSW 11.5 mph - N/A   Clear
9:30 PM 91.4 °F 33.8 °F 13% 29.98 in - WSW 10.4 mph - N/A   Clear
10:00 PM 89.6 °F 35.6 °F 15% 29.98 in - WSW 10.4 mph - N/A   Clear
10:30 PM 87.8 °F 37.4 °F 17% 30.01 in - WSW 10.4 mph 21.9 mph N/A   Clear
11:00 PM 87.8 °F 41.0 °F 19% 30.01 in - WSW 9.2 mph - N/A   Clear
11:30 PM 86.0 °F 41.0 °F 20% 30.01 in - WSW 6.9 mph - N/A   Clear